Regional Weather Roundup
Issued by NWS

Home | Current Version | Previous Version | Graphics & Text | Print | Product List | Glossary On
Versions: 1 2 3 4 5 6 7 8 9 10 11 12 13 14 15 16 17 18 19 20 21 22 23 24 25 26 27 28 29 30 31 32 33 34 35 36 37 38 39 40 41 42 43 44 45 46 47 48 49 50
000
ASUS43 KLMK 191810
RWRKY
KENTUCKY REGIONAL WEATHER ROUNDUP
NATIONAL WEATHER SERVICE LOUISVILLE KY
200 PM EDT TUE SEP 19 2017

NOTE "FAIR" INDICATES FEW OR NO CLOUDS BELOW 12,000 FEET
WITH NO SIGNIFICANT WEATHER AND/OR OBSTRUCTIONS TO VISIBILITY.

KYZ001>023-026-027-061>063-070>075-191900-
WESTERN AND SOUTH CENTRAL KENTUCKY

CITY           SKY/WX    TMP DP  RH WIND       PRES   REMARKS
PADUCAH        MOSUNNY   84  69  60 N3        29.94F
HENDERSON      PTSUNNY   81  71  71 W5        29.96F
OWENSBORO      PTSUNNY   81  70  69 SW6       29.96F
HOPKINSVILLE   PTSUNNY   81  72  72 CALM      29.96F
BOWLING GREEN  CLOUDY    77  71  82 E6        29.98F
GLASGOW        CLOUDY    75  68  79 E5        30.00F
$$

KYZ024-025-028>034-038-045-046-053-191900-
NORTH CENTRAL KENTUCKY

CITY           SKY/WX    TMP DP  RH WIND       PRES   REMARKS
LOUISVILLE/SDF CLOUDY    75  67  76 CALM      29.97F
LOUISVILLE/LOU CLOUDY    74  69  85 W3        29.99S
FORT KNOX      CLOUDY    73  68  84 W5        29.96F
$$

KYZ035>037-039>044-047>052-055>060-089>105-191900-
NORTHEAST KENTUCKY

CITY           SKY/WX    TMP DP  RH WIND       PRES   REMARKS
LEXINGTON      CLOUDY    70  66  87 E5        29.98F
COVINGTON      CLOUDY    70  67  90 CALM      29.99F
FRANKFORT      CLOUDY    71  67  87 NE5       29.98F
$$

KYZ054-064>069-076>088-106>120-191900-
SOUTHEAST KENTUCKY

CITY           SKY/WX    TMP DP  RH WIND       PRES   REMARKS
JACKSON        CLOUDY    79  65  62 NW5       30.03F
LONDON         SUNNY     83  63  50 NW7       30.02F
SOMERSET       CLOUDY    81  64  57 CALM      30.01F
MIDDLESBORO    PTSUNNY   82  65  56 E3        30.02F
MONTICELLO     LGT RAIN  79  71  76 W13       30.01F
$$





USA.gov is the U.S. government's official web portal to all federal, state and local government web resources and services.